Погода в Сан-Карлусе

Бразилия     22°00′52″S   47°53′26″W
темп.,
°C
ветер,
м/с
пор.,
м/с
влажн.,
%
обл.,
%
осадки,
мм/ч
давл.,
гПа
погр.,
м
1 марта, пн
пн100:00+19вюв2393100 5.4 101381
03:00+18в349295 6.9 101287
06:00+18всв41194100 0.1 1013310
09:00+22св51085100 0.2 1014557
12:00+25ссв4673100 0.7 1013998
15:00+26ссв3470100 1.0 10111144
18:00+23всв228090 0.1 101034
21:00+20в338593 0.1 101370
2 марта, вт
вт200:00+20в2384100 0.0 101349
03:00+20в2384100 0.0 101368
06:00+19всв31193100 0.8 1014361
09:00+22св61183100 0.8 1016610
12:00+25ссв577957 2.1 1014824
15:00+25св357772 6.4 1012725
18:00+23всв128478 1.9 101231
21:00+20всв389088 2.1 1015187
3 марта, ср
ср300:00+19всв499395 2.3 1016215
03:00+18св369297 2.4 1015143
06:00+18св3692100 0.0 1017132
09:00+22св4784100 0.0 1018415
12:00+25с4571100 0.1 10171080
15:00+26с356875 0.8 10141314
18:00+23ссз1178100 0.1 101324
21:00+20юв1180100 0.1 101623
4 марта, чт
чт400:00+20в2283100 0.0 101625
03:00+19всв2381100 0.0 101550
06:00+19св3783100 0.0 1016171
09:00+23с478199 0.0 1017506
12:00+24ссз477898 1.0 1016958
15:00+23сз368494 1.9 1013553
18:00+21сз1290100 0.4 101266
21:00+20ссв0193100 3.8 101423
5 марта, пт
пт500:00+19с2295100 2.4 101374
03:00+19сз2897100 3.4 1012405
06:00+18ссз2999100 1.0 1012444
09:00+19с3697100 2.7 1013322
12:00+23ссз5886100 0.3 1012785
15:00+23сз5887100 2.3 1010870
18:00+21зсз3995100 5.3 1009486
21:00+19сз2697100 6.1 1011234